Date String (YYYY-MM-DD hh:mm:ss) UTC,Instrument flags,absolute air pressure of the measurement (hPa),sample flow rate (lpm),inlet stack bypass flow (lpm),air temperature of the measurement (°C),ambient temperature measured by the external sensor (°C),aerosol sample conditioner tube jacket temperature (°C),OPC LED temperature (°C),internal box temperature (°C),relative humidity of the measurement (%),span deviation,mass concentration of particles derived from Lorenz-Mie calculation of OPC scattering (μg/m³),mass concentration of particles derived from Lorenz-Mie calculation of OPC scattering (μg/m³),mass concentration of particles derived from Lorenz-Mie calculation of OPC scattering (μg/m³)
DateTimeUTC,F1_M11,P_M11,Q1_M11,Q2_M11,T1_M11,T2_M11,T3_M11,T4_M11,T5_M11,U1_M11,ZSPAN_M11,X0_M11,X2_M11,X1_M11
2023-07-21 13:00:00,SystemResetWarning,0838.9,5.00,000.00,031.2,028.9,000.0,039.4,032.0,34.1,0000.0,0007.71,0004.84,0004.65
2023-07-21 13:01:00,SystemResetWarning,0839.0,4.99,000.00,031.2,028.9,000.0,039.4,032.0,34.0,0000.0,0007.61,0004.80,0004.63
2023-07-21 13:02:00,SystemResetWarning,0839.1,5.00,000.00,031.2,028.9,000.0,039.4,032.0,33.9,0000.0,0006.73,0004.77,0004.60
2023-07-21 13:03:00,SystemResetWarning,0839.1,5.00,000.00,031.2,028.9,000.0,039.5,032.0,33.8,0000.0,0006.76,0004.73,0004.56
2023-07-21 13:04:00,SystemResetWarning,0839.1,5.01,000.00,031.2,029.0,000.0,039.5,032.0,33.7,0000.0,0006.63,0004.67,0004.51
2023-07-21 13:05:00,SystemResetWarning,0839.1,5.00,000.00,031.2,029.0,000.0,039.5,032.0,33.7,0000.0,0006.63,0004.64,0004.48
2023-07-21 13:06:00,SystemResetWarning,0839.1,5.00,000.00,031.2,029.0,000.0,039.5,032.1,34.0,0000.0,0006.44,0004.57,0004.44
2023-07-21 13:07:00,SystemResetWarning,0839.0,5.00,000.00,031.2,028.7,000.0,039.4,032.1,34.0,0000.0,0006.37,0004.55,0004.41
2023-07-21 13:08:00,SystemResetWarning,0839.0,5.00,000.00,031.1,027.0,000.0,039.3,031.8,34.0,0000.0,0006.19,0004.53,0004.38
2023-07-21 13:09:00,SystemResetWarning,0838.8,5.01,000.00,031.0,025.6,000.0,039.2,031.6,34.2,0000.0,0006.18,0004.51,0004.36
2023-07-21 13:10:00,SystemResetWarning,0838.8,5.00,000.00,030.9,025.3,000.0,039.1,031.3,34.2,0000.0,0006.24,0004.53,0004.36
2023-07-21 13:11:00,SystemResetWarning,0838.9,5.01,000.00,030.7,025.6,000.0,039.1,031.1,34.7,0000.0,0006.36,0004.55,0004.36
2023-07-21 13:12:00,SystemResetWarning,0838.8,4.97,000.00,030.6,026.0,000.0,039.1,031.1,35.0,0000.0,0006.49,0004.57,0004.37
2023-07-21 13:13:00,SystemResetWarning,0838.9,5.03,000.00,030.6,026.4,000.0,039.1,031.3,35.1,0000.0,0006.45,0004.57,0004.37
2023-07-21 13:14:00,SystemResetWarning,0838.9,5.00,000.00,030.8,026.8,000.0,039.1,031.4,34.9,0000.0,0006.68,0004.61,0004.40
2023-07-21 13:15:00,SystemResetWarning,0838.9,4.98,000.00,031.0,027.1,000.0,039.1,031.6,34.5,0000.0,0007.10,0004.62,0004.42
2023-07-21 13:16:00,SystemResetWarning,0838.9,5.01,000.00,031.1,027.4,000.0,039.1,031.6,34.4,0000.0,0007.10,0004.63,0004.43
2023-07-21 13:17:00,SystemResetWarning,0838.9,5.01,000.00,031.2,027.6,000.0,039.1,031.6,34.3,0000.0,0007.27,0004.67,0004.45
2023-07-21 13:18:00,SystemResetWarning,0838.9,5.00,000.00,031.2,027.8,000.0,039.1,031.6,34.0,0000.0,0007.37,0004.68,0004.45
2023-07-21 13:19:00,SystemResetWarning,0838.9,4.99,000.00,031.2,028.0,000.0,039.2,031.6,33.9,0000.0,0007.37,0004.68,0004.46
2023-07-21 13:20:00,SystemResetWarning,0838.8,4.99,000.00,031.2,028.1,000.0,039.2,031.7,34.1,0000.0,0007.66,0004.68,0004.45
2023-07-21 13:21:00,SystemResetWarning,0838.9,5.01,000.00,031.2,028.2,000.0,039.3,031.7,34.4,0000.0,0007.72,0004.65,0004.42
2023-07-21 13:22:00,SystemResetWarning,0838.9,5.01,000.00,031.2,028.3,000.0,039.3,031.7,34.3,0000.0,0008.03,0004.65,0004.42
2023-07-21 13:23:00,SystemResetWarning,0838.9,5.00,000.00,031.2,028.4,000.0,039.3,031.8,34.3,0000.0,0008.08,0004.63,0004.41
2023-07-21 13:24:00,SystemResetWarning,0839.0,5.00,000.00,031.2,028.5,000.0,039.3,031.7,34.3,0000.0,0008.39,0004.65,0004.40
2023-07-21 13:25:00,SystemResetWarning,0839.0,5.00,000.00,031.2,028.5,000.0,039.4,031.7,34.5,0000.0,0008.35,0004.62,0004.36
2023-07-21 13:26:00,SystemResetWarning,0838.9,4.99,000.00,031.2,028.6,000.0,039.4,031.8,35.2,0000.0,0008.17,0004.61,0004.33
2023-07-21 13:27:00,SystemResetWarning,0838.9,5.02,000.00,031.4,028.6,000.0,039.4,031.9,35.2,0000.0,0008.15,0004.58,0004.31
2023-07-21 13:28:00,SystemResetWarning,0839.1,4.99,000.00,031.6,028.7,000.0,039.4,032.1,34.7,0000.0,0008.06,0004.55,0004.28
2023-07-21 13:29:00,SystemResetWarning,0839.1,4.99,000.00,031.8,028.7,000.0,039.4,032.1,34.3,0000.0,0008.05,0004.56,0004.27
2023-07-21 13:30:00,SystemResetWarning,0839.1,5.02,000.00,031.9,028.8,000.0,039.5,032.1,34.3,0000.0,0008.09,0004.56,0004.26
2023-07-21 13:31:00,SystemResetWarning,0839.1,4.99,000.00,031.9,028.8,000.0,039.6,032.1,34.3,0000.0,0007.79,0004.53,0004.25
2023-07-21 13:32:00,SystemResetWarning,0839.1,4.99,000.00,032.0,028.8,000.0,039.6,032.1,33.9,0000.0,0007.67,0004.52,0004.24
2023-07-21 13:33:00,SystemResetWarning,0839.1,5.00,000.00,032.0,028.9,000.0,039.7,032.1,34.1,0000.0,0007.20,0004.46,0004.21
2023-07-21 13:34:00,SystemResetWarning,0839.1,5.02,000.00,032.0,028.9,000.0,039.7,032.1,34.1,0000.0,0007.22,0004.42,0004.18
2023-07-21 13:35:00,SystemResetWarning,0839.1,5.00,000.00,032.0,028.9,000.0,039.8,032.1,34.1,0000.0,0006.70,0004.38,0004.15
2023-07-21 13:36:00,SystemResetWarning,0839.0,5.00,000.00,032.0,029.0,000.0,039.8,032.2,33.8,0000.0,0006.59,0004.36,0004.15
2023-07-21 13:37:00,SystemResetWarning,0839.0,4.99,000.00,031.9,028.5,000.0,039.8,032.2,33.6,0000.0,0006.61,0004.36,0004.14
2023-07-21 13:38:00,SystemResetWarning,0838.8,4.99,000.00,031.9,026.8,000.0,039.7,031.9,33.6,0000.0,0006.58,0004.36,0004.14
2023-07-21 13:39:00,SystemResetWarning,0838.9,5.01,000.00,031.8,025.7,000.0,039.6,031.8,33.3,0000.0,0006.75,0004.38,0004.14
2023-07-21 13:40:00,SystemResetWarning,0838.9,5.01,000.00,031.7,025.6,000.0,039.6,031.5,33.4,0000.0,0006.65,0004.35,0004.13
2023-07-21 13:41:00,SystemResetWarning,0838.8,5.00,000.00,031.5,025.9,000.0,039.6,031.4,33.5,0000.0,0006.45,0004.31,0004.12
2023-07-21 13:42:00,SystemResetWarning,0838.8,5.00,000.00,031.4,026.3,000.0,039.6,031.4,33.4,0000.0,0006.37,0004.31,0004.13
2023-07-21 13:43:00,SystemResetWarning,0838.8,5.00,000.00,031.3,026.6,000.0,039.6,031.5,33.2,0000.0,0006.74,0004.33,0004.15
2023-07-21 13:44:00,SystemResetWarning,0838.9,5.01,000.00,031.2,027.0,000.0,039.6,031.5,33.4,0000.0,0007.04,0004.36,0004.16
2023-07-21 13:45:00,SystemResetWarning,0838.9,5.00,000.00,031.2,027.3,000.0,039.6,031.6,33.6,0000.0,0006.87,0004.39,0004.18
2023-07-21 13:46:00,SystemResetWarning,0838.9,4.99,000.00,031.2,027.5,000.0,039.6,031.6,33.4,0000.0,0006.79,0004.41,0004.20
2023-07-21 13:47:00,SystemResetWarning,0838.9,4.99,000.00,031.1,027.7,000.0,039.5,031.6,33.6,0000.0,0006.88,0004.45,0004.22
2023-07-21 13:48:00,SystemResetWarning,0838.9,5.01,000.00,031.1,027.9,000.0,039.5,031.6,33.5,0000.0,0006.88,0004.47,0004.25
2023-07-21 13:49:00,SystemResetWarning,0838.9,5.02,000.00,031.1,028.1,000.0,039.5,031.7,32.9,0000.0,0006.95,0004.48,0004.26
2023-07-21 13:50:00,SystemResetWarning,0838.8,4.99,000.00,031.0,028.2,000.0,039.5,031.7,33.0,0000.0,0006.83,0004.48,0004.28
2023-07-21 13:51:00,SystemResetWarning,0838.8,5.00,000.00,031.0,028.3,000.0,039.4,031.7,33.2,0000.0,0006.89,0004.51,0004.30
2023-07-21 13:52:00,SystemResetWarning,0838.8,5.00,000.00,031.0,028.4,000.0,039.4,031.7,32.9,0000.0,0007.11,0004.56,0004.32
2023-07-21 13:53:00,SystemResetWarning,0838.8,4.99,000.00,031.0,028.4,000.0,039.4,031.7,33.0,0000.0,0007.31,0004.59,0004.33
2023-07-21 13:54:00,SystemResetWarning,0838.8,5.00,000.00,031.0,028.5,000.0,039.4,031.8,33.1,0000.0,0007.13,0004.59,0004.33
2023-07-21 13:55:00,SystemResetWarning,0838.8,5.00,000.00,030.9,028.5,000.0,039.4,031.8,33.7,0000.0,0006.71,0004.55,0004.31
2023-07-21 13:56:00,SystemResetWarning,0838.8,5.00,000.00,030.9,028.6,000.0,039.4,031.8,33.5,-000.4,0006.77,0004.50,0004.27
2023-07-21 13:57:00,SystemResetWarning,0838.8,5.00,000.00,030.9,028.6,000.0,039.3,031.8,33.1,-000.3,0007.02,0004.49,0004.25
2023-07-21 13:58:00,SystemResetWarning,0838.8,5.01,000.00,030.9,028.6,000.0,039.3,031.8,33.0,-000.6,0006.90,0004.47,0004.25
2023-07-21 13:59:00,SystemResetWarning,0838.7,5.01,000.00,030.9,028.7,000.0,039.3,031.8,33.4,0000.0,0007.07,0004.47,0004.24
